Hourly Data Report for October 12, 2016

All times are specified in Local Standard Time (LST). Add 1 hour to adjust for Daylight Saving Time where and when it is observed.

EUREKA CLIMATE
NUNAVUT

79°59'21.000" N
85°56'02.000" W
10.00 m
2401199
71613
NEK

Download Data

Hourly Data (October 2016)
Hourly Data Report for October 12, 2016
Temp Definition
°C
Dew Point Temp Definition
°C
Rel Hum Definition
%
Wind Dir Definition
10's deg

Wind Spd Definition
km/h
Visibility Definition
km
Stn Press Definition
kPa
Hmdx Definition


Wind Chill Definition


Weather Definition


TIME
00:00 -15.4 -16.6 91 2 3   101.75   -18 LegendNANA
01:00 -17.2 -18.5 90 2 3   101.74   -20 LegendNANA
02:00 -17.0 -18.3 89 3 2   101.74   -19 LegendNANA
03:00 -19.4 -21.0 87 2 2   101.73   -21 LegendNANA
04:00 -19.4 -20.9 88 2 2   101.70   -21 LegendNANA
05:00 -19.3 -20.9 88 2 1   101.71   -20 LegendNANA
06:00 -18.2 -19.5 89 3 1   101.67   -19 LegendNANA
07:00 -18.0 -19.4 89 4 1   101.63   -19 LegendNANA
08:00 -17.4 -18.7 89 7 1   101.60   -18 LegendNANA
09:00 -18.5 -20.0 88 5 1   101.59   -19 LegendNANA
10:00 -18.3 -19.8 88 3 1   101.57   -19 LegendNANA
11:00 -17.5 -18.9 89 5 1   101.54   -18 LegendNANA
12:00 -15.8 -16.9 91 8 1   101.52   -17 LegendNANA
13:00 -15.6 -16.7 91 3 5   101.52   -19 LegendNANA
14:00 -15.0 -16.0 91 7 2   101.52   -16 LegendNANA
15:00 -14.7 -15.8 91 14 2   101.52   -16 LegendNANA
16:00
17:00 -14.2 -15.2 92 4 1   101.50   -15 LegendNANA
18:00 -14.0 -15.0 92 13 1   101.51   -15 LegendNANA
19:00 -14.2 -15.3 92 13 1   101.50   -15 LegendNANA
20:00 -14.2 -15.3 92 12 1   101.51   -15 LegendNANA
21:00 -14.2 -15.2 92 12 1   101.50   -15 LegendNANA
22:00 -14.2 -15.2 92 12 1   101.49   -15 LegendNANA
23:00 -14.0 -14.9 92 13 1   101.55   -15 LegendNANA

Notes on Data Quality.

Legend

  • E = Estimated
  • M = Missing
  • NA = Not Available
  • ‡ = Partner data that is not subject to review by the National Climate Archives
Date modified: